Cloud_Cover
34 63 100 100 100 100 100 100 100 100 100 100 100 100 79 50 9 5 66 100 98 100 84 100 93 5 5 4 1 5 5 6 6 3 0 0 0 0 0 0 13 3 3 2 0 1 12 5 2
0 2 0 75 100 100 100 100 100 100 84 100 100 58 62 18 8 20 65 100 87 100 100 100 97 22 40 5 5 0 0 2 2 4 1 0 0 0 0 0 0 6 3 2 0 0 0 0 22
0 0 0 0 0 15 74 100 100 100 100 88 32 100 95 97 95 78 91 100 100 100 100 100 100 34 9 9 35 4 0 0 0 0 0 0 0 0 0 0 0 0 0 0 0 0 0 0 0
0 0 0 0 0 0 0 0 7 12 6 6 3 6 13 100 100 100 100 100 100 100 100 100 100 99 76 88 96 55 4 0 0 5 0 0 0 0 0 0 0 0 0 0 0 0 0 0 0
3 5 5 5 0 0 0 0 0 0 0 0 2 0 0 0 0 19 75 81 96 100 100 100 100 100 89 100 100 100 80 4 0 0 0 0 0 0 0 0 0 0 2 0 0 0 0 0 25
6 5 1 2 31 76 63 22 30 51 11 0 0 0 0 0 0 0 0 0 2 89 100 100 100 100 100 100 100 100 100 74 5 0 0 0 0 0 0 0 0 0 0 0 0 5 4 10 71
2 0 0 4 5 3 5 24 95 95 100 100 95 39 2 0 0 0 0 0 0 38 100 100 100 100 100 100 100 100 100 100 72 19 33 0 0 0 0 0 0 2 0 0 0 33 7 24 96
37 4 0 0 0 0 0 0 0 4 5 6 5 40 27 21 5 0 0 0 0 0 98 100 100 100 100 100 100 100 100 100 100 92 98 7 32 6 5 5 0 0 0 4 0 12 48 100 72
5 0 0 0 0 0 0 0 0 0 0 0 0 0 0 4 5 3 0 0 0 0 5 100 100 100 100 100 100 100 100 100 100 100 100 100 100 95 40 84 11 6 3 5 5 47 94 54 64
18 2 0 0 0 0 0 0 0 0 0 0 0 0 0 0 0 0 0 0 0 0 0 79 100 100 100 100 100 100 99 100 100 100 100 100 90 91 100 97 38 100 100 72 48 76 6 7 89
1 0 0 0 0 0 0 0 0 0 0 0 0 0 0 0 0 0 0 0 0 0 0 26 100 100 100 100 100 100 100 100 100 100 100 100 100 73 81 72 35 100 100 100 49 96 96 75 98
0 0 0 0 0 0 0 0 0 0 0 0 0 0 0 0 0 0 0 0 0 0 0 1 95 100 100 100 99 100 83 100 100 100 100 100 100 100 93 90 92 100 100 95 93 100 100 100 100
0 0 0 0 0 0 0 0 0 0 0 0 0 0 0 0 0 0 0 0 0 0 0 0 27 100 100 100 100 60 98 100 100 100 100 100 100 100 100 100 100 100 100 99 100 100 100 100 100
0 0 0 0 0 0 0 0 0 0 0 0 0 0 0 0 0 0 0 0 0 0 0 0 24 100 100 100 98 100 100 100 100 100 100 100 100 100 100 100 100 100 82 100 96 90 100 100 100
0 0 0 0 0 0 0 0 0 0 0 0 0 0 0 0 0 0 0 0 0 0 0 0 0 17 100 44 100 100 63 100 100 100 100 100 100 100 100 100 100 96 100 99 100 97 100 100 100
0 0 0 0 0 0 0 0 0 0 0 0 0 0 0 0 0 0 0 0 0 0 0 0 0 6 85 100 100 100 98 100 100 100 100 100 100 100 100 97 99 98 85 79 100 35 100 100 100
0 0 0 0 0 0 0 0 0 0 4 56 94 20 0 0 0 0 0 0 0 0 0 0 0 5 12 100 100 56 100 100 100 100 100 100 100 100 100 100 100 100 37 35 86 99 100 100 95
0 0 0 0 0 0 0 0 0 0 8 9 92 7 4 4 5 0 0 0 0 0 0 0 0 2 27 54 100 77 100 100 100 100 100 100 100 100 100 100 100 98 89 71 35 100 100 76 100
0 0 0 0 0 0 0 0 0 0 0 0 5 0 0 4 17 0 0 0 0 0 0 0 0 0 18 5 68 100 100 100 100 100 100 100 100 99 100 98 100 100 98 99 61 91 98 100 100
0 0 0 0 0 3 0 0 0 4 82 61 22 10 0 3 5 0 0 0 0 0 0 0 0 0 0 2 100 98 100 100 100 100 100 100 100 100 100 94 100 100 100 100 87 84 100 100 100
0 0 0 0 1 0 0 0 0 3 90 100 100 94 52 5 1 0 0 0 0 1 0 0 0 0 0 4 89 100 100 100 100 100 100 100 100 100 86 84 100 100 100 100 100 68 100 100 100
0 0 0 2 4 2 0 0 0 0 9 100 100 94 99 75 31 5 5 5 5 5 4 0 3 2 0 0 85 100 100 100 100 100 100 100 100 100 100 100 100 100 100 99 95 76 94 100 65
0 0 0 0 3 3 2 38 0 9 100 100 100 100 95 100 100 94 6 35 5 5 5 5 5 5 5 0 5 21 100 100 100 100 100 100 100 100 100 100 100 100 100 58 69 76 45 33 100
0 0 0 0 0 13 1 1 0 6 7 89 100 100 100 100 100 100 100 52 56 39 56 9 5 5 5 5 5 76 100 100 100 100 100 100 100 100 100 100 100 100 100 73 90 78 5 75 88
3 0 0 15 28 2 5 3 5 3 14 93 88 100 100 100 100 100 98 100 88 71 70 84 5 5 5 5 5 86 100 100 100 100 100 100 100 100 100 100 100 100 100 81 100 59 5 32 75
5 5 1 4 1 5 36 4 8 12 5 5 94 100 99 100 100 100 100 70 100 100 100 100 79 25 9 5 5 94 100 100 100 100 100 100 100 100 100 100 100 100 100 76 100 92 13 55 7
2 66 24 100 98 97 5 1 4 0 5 6 100 100 100 94 100 100 100 100 100 100 100 100 100 72 46 45 5 13 100 100 100 100 100 100 100 100 100 100 100 100 100 100 100 76 62 82 5
7 4 58 85 100 38 33 8 0 1 5 98 100 100 100 100 100 100 100 100 100 100 100 100 100 92 81 72 5 5 100 100 100 100 100 100 100 100 100 100 100 100 100 100 100 100 62 62 36
87 92 99 96 59 100 78 80 7 5 43 72 100 100 92 100 100 100 100 100 100 100 100 100 100 99 98 89 13 5 87 100 100 100 100 100 100 100 100 100 100 100 100 85 48 100 66 100 74
72 84 89 100 100 100 100 100 5 39 97 100 98 100 100 100 100 100 100 100 100 100 100 100 100 98 95 83 58 5 100 100 100 100 100 100 100 100 100 100 100 100 100 99 39 93 100 100 13